| time (UTC) | temp C | wind direction | speed KPH | gust KPH | rain 1hr cm | rain 24hr cm | rain mn cm | humidity % | barometer mb |
| 20260507101020 | 10 | 190 | 3.2 | 3.2 | 0.00 | 1.70 | 1.70 | 87 | 1008.1 |
| 20260507100019 | 10 | 174 | 1.6 | 1.6 | 0.00 | 1.70 | 1.70 | 87 | 1008.1 |
| 20260507095020 | 10 | 135 | 3.2 | 3.2 | 0.00 | 1.70 | 1.70 | 86 | 1008.1 |
| 20260507094019 | 11 | 100 | 3.2 | 3.2 | 0.00 | 1.70 | 1.70 | 86 | 1008.2 |
| 20260507093019 | 11 | 83 | 3.2 | 3.2 | 0.10 | 1.70 | 1.70 | 86 | 1007.2 |
| 20260507092020 | 11 | 111 | 3.2 | 3.2 | 0.10 | 1.70 | 1.70 | 87 | 1007.2 |
| 20260507091019 | 11 | 128 | 3.2 | 3.2 | 0.10 | 1.70 | 1.70 | 87 | 1007.2 |
| 20260507090019 | 11 | 157 | 3.2 | 3.2 | 0.10 | 1.70 | 1.70 | 88 | 1007.2 |
| 20260507085019 | 10 | 172 | 3.2 | 3.2 | 0.10 | 1.70 | 1.70 | 88 | 1007.1 |
| 20260507084019 | 10 | 206 | 3.2 | 3.2 | 0.10 | 1.70 | 1.70 | 88 | 1007.1 |
| 20260507083020 | 10 | 210 | 1.6 | 1.6 | 0.00 | 1.60 | 1.60 | 88 | 1007.1 |
| 20260507082019 | 10 | 254 | 1.6 | 1.6 | 0.00 | 1.60 | 1.60 | 88 | 1006.1 |
| 20260507081020 | 10 | 252 | 1.6 | 1.6 | 0.00 | 1.60 | 1.60 | 88 | 1006.2 |
| 20260507080020 | 11 | 214 | 1.6 | 1.6 | 0.00 | 1.60 | 1.60 | 88 | 1006.3 |
| 20260507075019 | 11 | 0.0 | 0.0 | 0.00 | 1.60 | 1.60 | 88 | 1006.3 | |
| 20260507074019 | 11 | 0.0 | 0.0 | 0.00 | 1.60 | 1.60 | 88 | 1006.4 | |
| 20260507073020 | 10 | 0.0 | 0.0 | 0.10 | 1.60 | 1.60 | 88 | 1006.3 | |
| 20260507072019 | 10 | 0.0 | 0.0 | 0.20 | 1.60 | 1.60 | 88 | 1006.3 | |
| 20260507071019 | 11 | 0.0 | 0.0 | 0.20 | 1.60 | 1.60 | 88 | 1006.3 | |
| 20260507070020 | 10 | 0.0 | 0.0 | 0.20 | 1.60 | 1.60 | 88 | 1005.4 | |
| 20260507065020 | 11 | 0.0 | 0.0 | 0.20 | 1.60 | 1.60 | 88 | 1005.4 | |
| 20260507064020 | 11 | 0.0 | 0.0 | 0.20 | 1.60 | 1.60 | 88 | 1005.4 | |
| 20260507063019 | 11 | 0.0 | 0.0 | 0.10 | 1.50 | 1.50 | 88 | 1005.4 | |
| 20260507062021 | 11 | 0.0 | 0.0 | 0.00 | 1.40 | 1.40 | 88 | 1005.4 | |
| 20260507061020 | 11 | 0.0 | 0.0 | 0.00 | 1.40 | 1.40 | 88 | 1005.5 | |
| 20260507060020 | 11 | 0.0 | 0.0 | 0.00 | 1.40 | 1.40 | 88 | 1005.5 | |
| 20260507055020 | 11 | 0.0 | 0.0 | 0.00 | 1.40 | 1.40 | 88 | 1005.5 | |
| 20260507054019 | 11 | 0.0 | 0.0 | 0.10 | 1.40 | 1.40 | 88 | 1005.6 | |
| 20260507053020 | 10 | 0.0 | 0.0 | 0.10 | 1.40 | 1.40 | 89 | 1005.5 | |
| 20260507052019 | 11 | 0.0 | 0.0 | 0.10 | 1.40 | 1.40 | 89 | 1005.6 | |
| 20260507051020 | 11 | 0.0 | 0.0 | 0.20 | 1.40 | 1.40 | 89 | 1005.6 | |
| 20260507050019 | 11 | 0.0 | 0.0 | 0.20 | 1.40 | 1.40 | 89 | 1005.6 | |
| 20260507045019 | 11 | 0.0 | 0.0 | 0.30 | 1.40 | 1.40 | 89 | 1005.6 | |
| 20260507044020 | 11 | 0.0 | 0.0 | 0.20 | 1.30 | 1.30 | 89 | 1004.7 | |
| 20260507043019 | 11 | 0.0 | 0.0 | 0.20 | 1.30 | 1.30 | 89 | 1004.7 | |
| 20260507042020 | 11 | 0.0 | 0.0 | 0.20 | 1.30 | 1.30 | 89 | 1004.7 | |
| 20260507041019 | 11 | 0.0 | 0.0 | 0.20 | 1.19 | 1.19 | 89 | 1004.7 | |
| 20260507040019 | 11 | 0.0 | 0.0 | 0.20 | 1.19 | 1.19 | 89 | 1004.7 | |
| 20260507035019 | 11 | 0.0 | 0.0 | 0.20 | 1.09 | 1.09 | 89 | 1004.7 | |
| 20260507034020 | 11 | 0.0 | 0.0 | 0.20 | 1.09 | 1.09 | 89 | 1004.7 | |
| 20260507033020 | 11 | 0.0 | 0.0 | 0.30 | 1.09 | 1.09 | 89 | 1004.7 | |
| 20260507032019 | 11 | 0.0 | 0.0 | 0.30 | 1.09 | 1.09 | 89 | 1004.8 | |
| 20260507031019 | 11 | 0.0 | 0.0 | 0.20 | 0.99 | 0.99 | 89 | 1004.7 | |
| 20260507030019 | 11 | 0.0 | 0.0 | 0.20 | 0.99 | 0.99 | 89 | 1004.7 | |
| 20260507025020 | 11 | 0.0 | 0.0 | 0.10 | 0.89 | 0.89 | 89 | 1004.7 | |
| 20260507024020 | 11 | 0.0 | 0.0 | 0.10 | 0.89 | 0.89 | 89 | 1004.7 | |
| 20260507023019 | 11 | 0.0 | 0.0 | 0.00 | 0.79 | 0.79 | 89 | 1004.6 | |
| 20260507022020 | 11 | 0.0 | 0.0 | 0.10 | 0.79 | 0.79 | 89 | 1004.6 | |
| 20260507021019 | 11 | 0.0 | 0.0 | 0.10 | 0.79 | 0.79 | 89 | 1004.6 | |
| 20260507020019 | 11 | 0.0 | 0.0 | 0.10 | 0.79 | 0.79 | 89 | 1004.6 | |
| 20260507015019 | 11 | 0.0 | 0.0 | 0.10 | 0.79 | 0.79 | 89 | 1004.6 | |
| 20260507014020 | 11 | 0.0 | 0.0 | 0.10 | 0.79 | 0.79 | 89 | 1004.6 | |
| 20260507013019 | 11 | 0.0 | 0.0 | 0.10 | 0.79 | 0.79 | 89 | 1004.6 | |
| 20260507012020 | 11 | 0.0 | 0.0 | 0.10 | 0.71 | 0.71 | 88 | 1004.6 | |
| 20260507011020 | 11 | 0.0 | 0.0 | 0.20 | 0.71 | 0.71 | 88 | 1004.6 | |
| 20260507010019 | 11 | 0.0 | 0.0 | 0.30 | 0.71 | 0.71 | 88 | 1004.6 | |
| 20260507005020 | 11 | 0.0 | 0.0 | 0.41 | 0.71 | 0.71 | 88 | 1004.6 | |
| 20260507004021 | 11 | 0.0 | 0.0 | 0.51 | 0.71 | 0.71 | 88 | 1004.6 | |
| 20260507003019 | 11 | 0.0 | 0.0 | 0.51 | 0.71 | 0.71 | 87 | 1004.6 | |
| 20260507002019 | 11 | 0.0 | 0.0 | 0.51 | 0.61 | 0.61 | 87 | 1004.6 | |
| 20260507001020 | 11 | 0.0 | 0.0 | 0.51 | 0.51 | 0.51 | 87 | 1004.6 | |
| 20260507000020 | 11 | 0.0 | 0.0 | 0.41 | 0.41 | 0.41 | 87 | 1004.5 | |
| 20260506235019 | 11 | 0.0 | 0.0 | 0.30 | 0.30 | 0.30 | 86 | 1004.5 | |
| 20260506234019 | 11 | 0.0 | 0.0 | 0.20 | 0.20 | 0.20 | 85 | 1004.6 | |
| 20260506233019 | 11 | 0.0 | 0.0 | 0.20 | 0.20 | 0.20 | 85 | 1004.6 | |
| 20260506232019 | 12 | 0.0 | 0.0 | 0.10 | 0.10 | 0.10 | 84 | 1004.7 | |
| 20260506231019 | 12 | 0.0 | 0.0 | 0.00 | 0.00 | 0.00 | 82 | 1004.7 | |
| 20260506230022 | 12 | 0.0 | 0.0 | 0.00 | 0.00 | 0.00 | 81 | 1004.6 | |
| 20260506225020 | 12 | 0.0 | 0.0 | 0.00 | 0.00 | 0.00 | 81 | 1003.6 | |
| 20260506224021 | 12 | 0.0 | 0.0 | 0.00 | 0.00 | 0.00 | 80 | 1003.7 | |
| 20260506223021 | 12 | 0.0 | 0.0 | 0.00 | 0.00 | 0.00 | 80 | 1003.6 | |
| 20260506220037 | 12 | 0.0 | 0.0 | 0.00 | 0.00 | 0.00 | 79 | 1003.6 | |
| 20260506215017 | 12 | 0.0 | 0.0 | 0.00 | 0.00 | 0.00 | 79 | 1003.5 | |
| 20260506214017 | 12 | 0.0 | 0.0 | 0.00 | 0.00 | 0.00 | 79 | 1003.5 | |
| 20260506213017 | 12 | 0.0 | 0.0 | 0.00 | 0.10 | 0.00 | 79 | 1003.4 | |
| 20260506212017 | 12 | 0.0 | 0.0 | 0.00 | 0.10 | 0.00 | 78 | 1003.4 | |
| 20260506211017 | 12 | 0.0 | 0.0 | 0.00 | 0.20 | 0.00 | 78 | 1003.4 | |
| 20260506210017 | 12 | 0.0 | 0.0 | 0.00 | 0.41 | 0.00 | 76 | 1003.4 | |
| 20260506205018 | 12 | 0.0 | 0.0 | 0.00 | 0.41 | 0.00 | 75 | 1003.4 | |
| 20260506204017 | 12 | 37 | 1.6 | 1.6 | 0.00 | 0.51 | 0.00 | 74 | 1003.4 |
| 20260506203017 | 12 | 11 | 1.6 | 1.6 | 0.00 | 0.61 | 0.00 | 74 | 1003.5 |
| 20260506202016 | 12 | 351 | 1.6 | 1.6 | 0.00 | 0.61 | 0.00 | 74 | 1003.5 |
| 20260506201017 | 12 | 14 | 1.6 | 1.6 | 0.00 | 0.71 | 0.00 | 76 | 1003.5 |
| 20260506200017 | 13 | 32 | 1.6 | 1.6 | 0.00 | 0.81 | 0.00 | 78 | 1003.6 |
| 20260506195037 | 13 | 38 | 3.2 | 3.2 | 0.00 | 0.89 | 0.00 | 79 | 1003.7 |
| 20260506194017 | 14 | 63 | 3.2 | 3.2 | 0.00 | 0.99 | 0.00 | 76 | 1002.7 |
| 20260506193017 | 15 | 33 | 3.2 | 3.2 | 0.00 | 1.30 | 0.00 | 72 | 1002.7 |
| 20260506192017 | 15 | 0.0 | 0.0 | 0.00 | 1.50 | 0.00 | 69 | 1002.7 | |
| 20260506191017 | 15 | 0.0 | 0.0 | 0.00 | 1.50 | 0.00 | 67 | 1002.6 | |
| 20260506190018 | 16 | 0.0 | 0.0 | 0.00 | 1.50 | 0.00 | 65 | 1002.7 | |
| 20260506185017 | 16 | 0.0 | 0.0 | 0.00 | 1.50 | 0.00 | 64 | 1001.7 | |
| 20260506184017 | 16 | 0.0 | 0.0 | 0.00 | 1.50 | 0.00 | 64 | 1001.7 | |
| 20260506183017 | 16 | 0.0 | 0.0 | 0.00 | 1.50 | 0.00 | 64 | 1001.7 | |
| 20260506182016 | 16 | 0.0 | 0.0 | 0.00 | 1.50 | 0.00 | 63 | 1001.6 | |
| 20260506181017 | 16 | 0.0 | 0.0 | 0.00 | 1.50 | 0.00 | 61 | 1001.6 | |
| 20260506180017 | 17 | 0.0 | 0.0 | 0.00 | 1.50 | 0.00 | 58 | 1001.6 | |
| 20260506175016 | 17 | 0.0 | 0.0 | 0.00 | 1.50 | 0.00 | 56 | 1001.6 | |
| 20260506174016 | 17 | 0.0 | 0.0 | 0.00 | 1.50 | 0.00 | 55 | 1001.7 | |
| 20260506173017 | 17 | 0.0 | 0.0 | 0.00 | 1.50 | 0.00 | 54 | 1001.7 | |
| 20260506172017 | 17 | 0.0 | 0.0 | 0.00 | 1.50 | 0.00 | 53 | 1001.7 | |
| 20260506171017 | 17 | 0.0 | 0.0 | 0.00 | 1.50 | 0.00 | 53 | 1001.7 | |
| 20260506170017 | 17 | 0.0 | 0.0 | 0.00 | 1.50 | 0.00 | 52 | 1001.7 | |
| 20260506165017 | 18 | 0.0 | 0.0 | 0.00 | 1.50 | 0.00 | 50 | 1001.7 | |
| 20260506164016 | 18 | 0.0 | 0.0 | 0.00 | 1.50 | 0.00 | 48 | 1001.8 | |
| 20260506163018 | 19 | 331 | 1.6 | 1.6 | 0.00 | 1.50 | 0.00 | 48 | 1001.7 |
| 20260506162017 | 20 | 0.0 | 0.0 | 0.00 | 1.50 | 0.00 | 50 | 1001.7 | |
| 20260506161017 | 19 | 0.0 | 0.0 | 0.00 | 1.50 | 0.00 | 51 | 1001.7 | |
| 20260506160017 | 19 | 0.0 | 0.0 | 0.00 | 1.50 | 0.00 | 51 | 1001.7 | |
| 20260506155016 | 19 | 0.0 | 0.0 | 0.00 | 1.50 | 0.00 | 52 | 1001.7 | |
| 20260506154018 | 18 | 0.0 | 0.0 | 0.00 | 1.50 | 0.00 | 51 | 1001.7 | |
| 20260506153017 | 19 | 246 | 1.6 | 1.6 | 0.00 | 1.50 | 0.00 | 49 | 1001.7 |
| 20260506152016 | 20 | 256 | 1.6 | 1.6 | 0.00 | 1.50 | 0.00 | 50 | 1001.8 |
| 20260506151017 | 19 | 257 | 1.6 | 1.6 | 0.00 | 1.50 | 0.00 | 52 | 1001.7 |
| 20260506150018 | 19 | 275 | 1.6 | 1.6 | 0.00 | 1.50 | 0.00 | 52 | 1002.8 |
| 20260506145017 | 19 | 282 | 1.6 | 1.6 | 0.00 | 1.50 | 0.00 | 52 | 1001.8 |
| 20260506144017 | 18 | 301 | 1.6 | 1.6 | 0.00 | 1.50 | 0.00 | 54 | 1002.8 |
| 20260506143018 | 18 | 0.0 | 0.0 | 0.00 | 1.50 | 0.00 | 55 | 1002.7 | |
| 20260506142016 | 17 | 0.0 | 0.0 | 0.00 | 1.50 | 0.00 | 55 | 1002.7 | |
| 20260506141017 | 17 | 0.0 | 0.0 | 0.00 | 1.50 | 0.00 | 56 | 1002.7 | |
| 20260506140018 | 17 | 0.0 | 0.0 | 0.00 | 1.50 | 0.00 | 57 | 1002.7 | |
| 20260506135017 | 17 | 0.0 | 0.0 | 0.00 | 1.50 | 0.00 | 57 | 1002.7 | |
| 20260506134018 | 17 | 0.0 | 0.0 | 0.00 | 1.50 | 0.00 | 56 | 1002.7 | |
| 20260506133018 | 18 | 199 | 3.2 | 3.2 | 0.00 | 1.50 | 0.00 | 56 | 1002.7 |
| 20260506132017 | 18 | 230 | 1.6 | 1.6 | 0.00 | 1.50 | 0.00 | 56 | 1002.7 |
| 20260506131018 | 17 | 0.0 | 0.0 | 0.00 | 1.50 | 0.00 | 56 | 1002.7 | |
| 20260506130018 | 18 | 0.0 | 0.0 | 0.00 | 1.50 | 0.00 | 56 | 1002.7 | |
| 20260506125018 | 17 | 241 | 3.2 | 3.2 | 0.00 | 1.50 | 0.00 | 57 | 1002.7 |
| 20260506124017 | 17 | 213 | 3.2 | 3.2 | 0.00 | 1.50 | 0.00 | 57 | 1002.7 |
| 20260506123018 | 17 | 0.0 | 0.0 | 0.00 | 1.50 | 0.00 | 58 | 1002.6 | |
| 20260506122017 | 17 | 270 | 1.6 | 1.6 | 0.00 | 1.50 | 0.00 | 58 | 1002.6 |
| 20260506121018 | 17 | 239 | 1.6 | 1.6 | 0.00 | 1.50 | 0.00 | 58 | 1002.6 |
| 20260506120017 | 17 | 252 | 1.6 | 1.6 | 0.00 | 1.50 | 0.00 | 59 | 1002.5 |
| 20260506115017 | 17 | 231 | 3.2 | 3.2 | 0.00 | 1.50 | 0.00 | 59 | 1002.5 |
| 20260506114017 | 17 | 194 | 3.2 | 3.2 | 0.00 | 1.50 | 0.00 | 58 | 1002.6 |
| 20260506113019 | 17 | 202 | 1.6 | 1.6 | 0.00 | 1.50 | 0.00 | 59 | 1002.6 |
| 20260506112017 | 17 | 164 | 3.2 | 3.2 | 0.00 | 1.50 | 0.00 | 58 | 1002.6 |
| 20260506111019 | 17 | 160 | 3.2 | 3.2 | 0.00 | 1.50 | 0.00 | 60 | 1002.6 |
| 20260506110017 | 17 | 165 | 1.6 | 1.6 | 0.00 | 1.50 | 0.00 | 57 | 1002.5 |
| 20260506105017 | 17 | 178 | 1.6 | 1.6 | 0.00 | 1.50 | 0.00 | 57 | 1002.5 |
| 20260506104017 | 17 | 159 | 1.6 | 1.6 | 0.00 | 1.50 | 0.00 | 60 | 1002.6 |
| 20260506103018 | 17 | 170 | 1.6 | 1.6 | 0.00 | 1.50 | 0.00 | 61 | 1002.5 |
| 20260506102019 | 16 | 153 | 1.6 | 1.6 | 0.00 | 1.50 | 0.00 | 63 | 1002.5 |